User: anonymous   Login
Location: Peebles
(55.6412°N, 3.1714°W)
Time: 06:43:37
(UTC+00:00)
Language:

Cosmos 1536 Rocket - Orbit

View from above orbital plane
View from above orbital plane
View from above satellite
View from above satellite

Ground track
Ground track

The orbit data is extracted from the following two-line orbital elements,

1 14700U 84013B   21336.80077605  .00000132  00000-0  13101-4 0  9992
2 14700  82.5382  74.2187 0019631 359.6514 116.2606 14.83359169 42562
Epoch (UTC): 02 December 2021 19:13:07
Eccentricity: 0.0019631
inclination: 82.5382°
perigee height: 605 km
apogee height: 632 km
right ascension of ascending node: 74.2187°
argument of perigee: 359.6514°
revolutions per day: 14.83359169
mean anomaly at epoch: 116.2606°
orbit number at epoch: 4256

The dashed part of the orbit path shows where the satellite is in the earth's shadow,  

DLR